Powrót do katalogu

YAMAL 300K

AktywnyŁącznośćGEO
NORAD 38978·PAYLOAD·🇷🇺 Russia

Wystrzelony Nov 2, 2012 z Baikonur Cosmodrome

Loading…

TLE

ŚwieżeSource: Space-Track

Epoka: Sep 14, 2026, 18:24 UTC

1 38978U 12061B   26257.76685572  .00000063  00000-0  00000-0 0  9992
2 38978   0.0121 204.5761 0000500 172.2164  75.9685  1.00269806 50528

Śledź YAMAL 300K w czasie rzeczywistym z AllMySat

Download on the App Store